Location: Unspecified
(17.6330°N, 0.0000°E)
Time: 03:29:09
(UTC+00:00)

A-11 Canister half - Pass Details

Date: 17 June 2019
Orbit: 1514 x 1686 km, 47.2° (Epoch: 12 October)

Event Time Altitude Azimuth Distance (km) Brightness Sun altitude
Rises 13:22:36 0° 291° (WNW) 4,860 11.9 70.0°
Reaches altitude 10° 13:29:00 10° 321° (NW) 3,829 11.5 68.6°
Maximum altitude 13:32:12 12° 340° (NNW) 3,660 11.4 67.9°
Drops below altitude 10° 13:35:22 10° 0° (N) 3,782 11.3 67.2°
Sets 13:41:36 0° 31° (NNE) 4,723 11.5 65.8°
